{"data":{"norad_id":63011,"intl_designator":"2025-032G","name":"STARLINK-11580 [DTC]","alt_names":[],"object_type":"PAYLOAD","status":"ACTIVE","operator":null,"country":"US","launch_date":"2025-02-15","launch_site_code":"AFETR","launch_vehicle":null,"mission":null,"orbit_class":"UNKNOWN","rcs_meters":null,"size_class":null,"mass_kg":null,"dimensions":null,"purposes":["comms"],"wikipedia_slug":null,"has_3d_model":false,"image_url":null,"decayed_at":null,"tle_current":{"epoch":"2026-05-24T21:50:08.090304Z","epoch_age_seconds":76838,"freshness":"FRESH","line1":"1 63011U 25032G   26144.90981586  .00209303  00000+0  15890-2 0  9997","line2":"2 63011  42.9985  95.6949 0001213 229.6361 130.4401 15.70913079 74059","mean_motion":15.70913079,"eccentricity":0.0001213,"inclination_deg":42.9985,"raan_deg":95.6949,"arg_perigee_deg":229.6361,"mean_anomaly_deg":130.4401,"bstar":0.001589,"rev_number":7405,"period_min":91.66643395169,"perigee_km":355.46931067328,"apogee_km":357.10308174068,"semimajor_km":6734.423196207,"source":"CELESTRAK","updated_at":"2026-05-25T13:38:19.836189Z"}}}